Location: Mentone
(34.5413°N, 85.5351°W)
Time: 16:57:24
(UTC-06:00)

Amateur Radio Satellites - All Passes

Search period start: 26 February 2015 16:27
Search period end: 27 February 2015 16:27
Location: Mentone, 34.5413°N, 85.5351°W

Satellite Date Start Highest point End Downlink Frequencies (MHz)
Time Altitude Azimuth
MOZHAYETS 4 26 Feb 16:29:02 16:33:41 83° 102° (ESE) 16:38:19
AUBIESAT-1 26 Feb 16:30:19 16:34:26 61° 288° (WNW) 16:38:53 437.475
AO-7 26 Feb 16:32:35 16:39:10 24° 266° (W) 16:45:23 29.400- 29.500
JAS-2 26 Feb 17:07:42 17:09:50 12° 273° (W) 17:11:37 435.910
AIST 2 26 Feb 17:16:15 17:17:27 11° 109° (ESE) 17:18:55 435.215
Cubesat XI-IV 26 Feb 17:19:47 17:25:09 88° 257° (WSW) 17:30:34 437.490
YUBILEINY 26 Feb 17:20:45 17:28:46 38° 286° (WNW) 17:36:42 435.215
BEESAT 3 26 Feb 17:21:33 17:25:26 46° 115° (ESE) 17:29:24 437.485
ISS 26 Feb 17:25:41 17:28:56 76° 224° (SW) 17:32:10 145.825
CUTE-I 26 Feb 17:30:13 17:35:34 71° 258° (WSW) 17:40:57 437.470
BEESAT 2 26 Feb 17:41:39 17:45:42 69° 117° (ESE) 17:49:51 435.950
PRISM 26 Feb 17:44:13 17:48:07 36° 98° (E) 17:52:02 437.425
VERMONT LUNAR 26 Feb 17:56:56 18:00:06 33° 148° (SSE) 18:03:18 437.305
BRITE-PL 26 Feb 18:03:56 18:05:58 12° 66° (ENE) 18:08:20 437.365/2234.400
STRAND 1 26 Feb 18:07:04 18:11:50 37° 98° (E) 18:16:35 437.568
CUBESAT XI-V 26 Feb 18:14:50 18:19:35 81° 102° (ESE) 18:24:17 437.345
GOMX 1 26 Feb 18:31:25 18:34:17 15° 68° (ENE) 18:37:22 467.674
AIST 1 26 Feb 18:47:36 18:51:58 61° 266° (W) 18:56:17
AIST 2 26 Feb 18:51:30 18:55:39 53° 302° (WNW) 18:59:51 435.215
COMPASS 1 26 Feb 18:54:50 18:56:02 11° 68° (ENE) 18:57:29 437.405
HO-68 26 Feb 18:55:30 19:01:54 38° 67° (ENE) 19:08:25 435.675
BEESAT 3 26 Feb 19:01:23 19:03:49 15° 312° (NW) 19:06:10 437.485
PHONESAT 2.4 26 Feb 19:05:49 19:09:23 57° 152° (SSE) 19:12:58 2401.200-2431.200
CANX-2 26 Feb 19:08:43 19:12:18 28° 72° (ENE) 19:15:56 2200.000
SEEDS 26 Feb 19:13:07 19:16:26 24° 72° (ENE) 19:19:49 437.485
PRISM 26 Feb 19:20:44 19:23:22 16° 291° (WNW) 19:25:49 437.425
BEESAT 2 26 Feb 19:23:07 19:24:26 11° 315° (NW) 19:25:32 435.950
DOVE 4 26 Feb 19:25:58 19:30:42 35° 73° (ENE) 19:35:20 437.250
CUTE 1.7 + AOD 2 26 Feb 19:27:34 19:31:33 42° 74° (ENE) 19:35:34 437.475
VERMONT LUNAR 26 Feb 19:34:33 19:37:58 50° 342° (NNW) 19:41:23 437.305
BRITE-PL 26 Feb 19:38:11 19:43:53 83° 257° (WSW) 19:49:32 437.365/2234.400
STRAND 1 26 Feb 19:46:51 19:50:49 22° 292° (WNW) 19:54:38 437.568
Oscar 11 26 Feb 19:48:24 19:51:33 21° 71° (ENE) 19:54:50 145.826/435.025
O/OREOS (USA 219) 26 Feb 19:52:51 19:57:28 86° 71° (ENE) 20:02:02 437.305
DX 1 26 Feb 20:05:15 20:07:56 17° 69° (ENE) 20:10:48 434.975-435.025
GOMX 1 26 Feb 20:06:32 20:11:59 63° 260° (W) 20:17:17 467.674
CINEMA 3 26 Feb 20:07:36 20:12:19 50° 75° (ENE) 20:16:56 145.822/145.860
PCSat 26 Feb 20:10:20 20:14:54 29° 109° (ESE) 20:19:35 145.827
ZACube-1 26 Feb 20:22:42 20:26:19 25° 72° (ENE) 20:29:58 437.345
FUNcube-1 26 Feb 20:23:09 20:26:45 25° 72° (ENE) 20:30:23 145.935
COMPASS 1 26 Feb 20:27:21 20:31:23 49° 261° (W) 20:35:26 437.405
DELFI C3 26 Feb 20:27:46 20:31:36 45° 75° (ENE) 20:35:29 145.870
AAUSAT CUBESAT 2 26 Feb 20:28:20 20:32:24 56° 260° (W) 20:36:28 437.432
UWE-3 26 Feb 20:31:00 20:35:12 40° 74° (ENE) 20:39:22 435.000/436.395/437.385
UKube-1 26 Feb 20:39:09 20:43:09 38° 73° (ENE) 20:47:13 .
HO-68 26 Feb 20:43:10 20:49:38 35° 263° (W) 20:56:01 435.675
PHONESAT 2.4 26 Feb 20:44:31 20:47:58 40° 347° (NNW) 20:51:25 2401.200-2431.200
CANX-2 26 Feb 20:45:11 20:48:17 19° 267° (W) 20:51:16 2200.000
SEEDS 26 Feb 20:48:52 20:52:13 22° 266° (W) 20:55:28 437.485
CUBEBUG 2 26 Feb 20:58:32 21:03:10 79° 258° (WSW) 21:07:40 437.445
HUMSAT D 26 Feb 21:01:12 21:05:02 35° 74° (ENE) 21:08:53 437.325/437.525
DOVE 4 26 Feb 21:04:16 21:08:30 23° 266° (W) 21:12:30 437.250
CUTE 1.7 + AOD 2 26 Feb 21:05:51 21:07:46 12° 269° (W) 21:09:26 437.475
VERMONT LUNAR 26 Feb 21:13:14 21:16:20 29° 359° (N) 21:19:25 437.305
AISAT 26 Feb 21:22:10 21:26:29 48° 74° (ENE) 21:30:51 437.250
Oscar 11 26 Feb 21:23:54 21:27:37 27° 264° (W) 21:31:16 145.826/435.025
GONETS M04 26 Feb 21:31:24 21:39:50 59° 92° (E) 21:48:20
ESTCUBE 1 26 Feb 21:33:08 21:36:55 28° 71° (ENE) 21:40:49 437.505/2401.250
VELOX 1 26 Feb 21:33:46 21:38:12 65° 75° (ENE) 21:42:40 145.980
QB50P1 26 Feb 21:34:10 21:35:04 11° 90° (E) 21:36:15 145.935-145.965
QB50P2 26 Feb 21:35:53 21:37:20 12° 91° (E) 21:39:02 145.880/145.840
DX 1 26 Feb 21:39:51 21:43:56 37° 262° (W) 21:48:01 434.975-435.025
CUBEBUG 1 26 Feb 21:41:46 21:45:39 31° 72° (ENE) 21:49:37 437.445
50 SAT 26 Feb 21:44:22 21:48:23 85° 78° (ENE) 21:52:24 437.505
CINEMA 3 26 Feb 21:47:06 21:49:49 14° 269° (W) 21:52:13 145.822/145.860
PCSat 26 Feb 21:53:24 21:58:15 32° 304° (NW) 22:03:04 145.827
DUCHIFAT 1 26 Feb 21:53:40 21:56:40 19° 94° (E) 21:59:46 145.980
UNISAT 6 26 Feb 21:54:00 21:57:59 38° 98° (E) 22:02:03 437.425
ZACube-1 26 Feb 21:59:02 22:02:40 23° 265° (W) 22:06:08 437.345
FUNcube-1 26 Feb 21:59:26 22:03:04 23° 265° (W) 22:06:32 145.935
BUGSAT 1 26 Feb 22:06:12 22:09:13 20° 94° (E) 22:12:19 437.445
DELFI C3 26 Feb 22:06:17 22:07:08 10° 270° (W) 22:07:44 145.870
POLYITAN 1 26 Feb 22:08:03 22:11:45 30° 97° (E) 22:15:29 437.675
UWE-3 26 Feb 22:09:09 22:11:56 15° 268° (W) 22:14:29 435.000/436.395/437.385
POPSAT HIP 1 26 Feb 22:10:51 22:14:37 31° 97° (E) 22:18:24 437.405
UKube-1 26 Feb 22:16:52 22:19:31 15° 268° (W) 22:21:58 .
TIGRISAT 26 Feb 22:21:06 22:25:23 82° 100° (E) 22:29:42 435.000
PHONESAT 2.4 26 Feb 22:23:39 22:26:55 31° 4° (N) 22:30:12 2401.200-2431.200
SPROUT 26 Feb 22:31:48 22:35:24 27° 72° (ENE) 22:39:05 437.525
ANTELSAT 26 Feb 22:32:12 22:36:28 71° 284° (WNW) 22:40:46 437.575/2403.000
NANOSAT C BR1 26 Feb 22:35:27 22:39:40 66° 101° (E) 22:43:50 145.865
HUMSAT D 26 Feb 22:38:22 22:40:58 15° 268° (W) 22:43:24 437.325/437.525
CUSAT 1 26 Feb 22:42:34 22:46:54 18° 93° (E) 22:50:59 437.405
TISAT 1 26 Feb 22:51:04 22:55:04 41° 74° (ENE) 22:59:08 437.305
VERMONT LUNAR 26 Feb 22:51:20 22:54:42 46° 16° (NNE) 22:58:03 437.305
AISAT 26 Feb 23:01:19 23:03:26 13° 269° (W) 23:05:17 437.250
RS-15 26 Feb 23:02:30 23:13:09 64° 114° (ESE) 23:23:56 29.354- 29.394
QB50P1 26 Feb 23:07:13 23:11:19 49° 285° (WNW) 23:15:23 145.935-145.965
QB50P2 26 Feb 23:09:30 23:13:34 45° 286° (WNW) 23:17:35 145.880/145.840
ESTCUBE 1 26 Feb 23:10:14 23:13:49 22° 266° (W) 23:17:19 437.505/2401.250
CUBEBUG 1 26 Feb 23:18:51 23:22:06 19° 267° (W) 23:25:14 437.445
DANDE 26 Feb 23:27:16 23:34:18 40° 95° (E) 23:40:02 436.750
DUCHIFAT 1 26 Feb 23:28:55 23:32:33 28° 288° (WNW) 23:36:06 145.980
GONETS M04 26 Feb 23:30:13 23:37:17 26° 290° (WNW) 23:44:03
UNISAT 6 26 Feb 23:32:00 23:34:32 15° 291° (WNW) 23:36:55 437.425
SWISSCUBE 26 Feb 23:40:06 23:43:51 24° 70° (ENE) 23:47:43 437.505
BUGSAT 1 26 Feb 23:41:12 23:44:44 26° 288° (WNW) 23:48:09 437.445
POLYITAN 1 26 Feb 23:44:31 23:47:31 18° 290° (WNW) 23:50:22 437.675
POPSAT HIP 1 26 Feb 23:47:25 23:50:18 18° 290° (WNW) 23:53:02 437.405
BEESAT 26 Feb 23:49:19 23:53:18 28° 70° (ENE) 23:57:22 436.000
PHONESAT 2.4 27 Feb 00:02:08 00:05:44 68° 21° (NNE) 00:09:19 2401.200-2431.200
SPROUT 27 Feb 00:08:05 00:11:29 22° 266° (W) 00:14:48 437.525
ITUPSAT 1 27 Feb 00:13:13 00:17:48 49° 73° (ENE) 00:22:26 437.325
CUSAT 1 27 Feb 00:22:36 00:29:47 60° 279° (W) 00:35:19 437.405
TISAT 1 27 Feb 00:28:51 00:31:08 14° 268° (W) 00:33:11 437.305
VERMONT LUNAR 27 Feb 00:29:22 00:32:36 37° 211° (SSW) 00:35:49 437.305
ITAMSAT 1 27 Feb 01:07:29 01:11:21 21° 94° (E) 01:15:21 435.822/435.867
KKS-1 27 Feb 01:10:12 01:14:17 36° 73° (ENE) 01:18:25 437.445
DANDE 27 Feb 01:11:01 01:17:39 31° 283° (WNW) 01:22:55 436.750
RS-15 27 Feb 01:16:31 01:26:17 35° 316° (NW) 01:36:00 29.354- 29.394
SWISSCUBE 27 Feb 01:17:26 01:21:37 29° 264° (W) 01:25:45 437.505
Oscar 19 27 Feb 01:17:45 01:22:54 89° 309° (NW) 01:28:02 437.125/150
STARS 27 Feb 01:26:34 01:30:34 35° 73° (ENE) 01:34:38 437.465
BEESAT 27 Feb 01:27:10 01:31:07 25° 265° (W) 01:35:01 436.000
SO-50 27 Feb 01:30:27 01:34:40 40° 114° (ESE) 01:39:04 436.795
YUBILEINY 27 Feb 01:40:14 01:44:45 16° 63° (ENE) 01:49:56 435.215
PHONESAT 2.4 27 Feb 01:41:05 01:44:00 23° 215° (SW) 01:46:52 2401.200-2431.200
BEESAT 3 27 Feb 01:45:54 01:47:19 12° 46° (NE) 01:48:55 437.485
Gurwin Techsat 1B 27 Feb 01:53:18 01:58:24 46° 99° (E) 02:03:30 435.225
ITUPSAT 1 27 Feb 01:53:26 01:56:02 14° 269° (W) 01:58:23 437.325
BEESAT 2 27 Feb 02:05:43 02:08:17 16° 49° (NE) 02:10:56 435.950
JAS-2 27 Feb 02:32:50 02:35:50 13° 87° (E) 02:39:34 435.910
JUGNU 27 Feb 02:36:51 02:39:25 13° 167° (SSE) 02:42:05 437.505
AO-7 27 Feb 02:44:15 02:50:36 25° 94° (E) 02:57:17 29.400- 29.500
ITAMSAT 1 27 Feb 02:46:10 02:51:00 38° 289° (WNW) 02:55:45 435.822/435.867
KKS-1 27 Feb 02:48:05 02:51:06 17° 267° (W) 02:53:55 437.445
STARS 27 Feb 03:04:11 03:07:11 17° 267° (W) 03:10:02 437.465
HORYU 2 27 Feb 03:06:20 03:10:47 71° 102° (ESE) 03:15:12 437.375
M-CUBED/EXP-1 PRIME 27 Feb 03:11:05 03:14:23 82° 252° (WSW) 03:17:43 437.505
SO-50 27 Feb 03:11:54 03:15:25 21° 311° (NW) 03:18:55 436.795
AUBIESAT-1 27 Feb 03:16:40 03:19:57 78° 256° (WSW) 03:23:17 437.475
AIST 2 27 Feb 03:16:50 03:20:43 33° 55° (NE) 03:24:33 435.215
BEESAT 3 27 Feb 03:21:49 03:25:54 63° 244° (WSW) 03:29:54 437.485
MOZHAYETS 4 27 Feb 03:27:33 03:31:56 50° 75° (ENE) 03:36:22
YUBILEINY 27 Feb 03:34:10 03:43:04 89° 85° (E) 03:51:54 435.215
Gurwin Techsat 1B 27 Feb 03:34:19 03:38:04 19° 293° (WNW) 03:41:38 435.225
RS-15 27 Feb 03:39:33 03:43:39 12° 348° (NNW) 03:47:30 29.354- 29.394
BEESAT 2 27 Feb 03:42:47 03:46:42 41° 246° (WSW) 03:50:32 435.950
JAS-2 27 Feb 04:14:20 04:21:46 84° 102° (ESE) 04:29:39 435.910
SRMSAT 27 Feb 04:18:41 04:21:27 14° 168° (SSE) 04:24:19 437.500
JUGNU 27 Feb 04:23:43 04:27:46 19° 177° (S) 04:31:51 437.505
PRISM 27 Feb 04:32:22 04:35:03 18° 69° (ENE) 04:37:53 437.425
AO-7 27 Feb 04:35:48 04:43:57 61° 291° (WNW) 04:52:01 29.400- 29.500
AIST 2 27 Feb 04:56:06 04:59:06 18° 249° (WSW) 05:01:56 435.215
PCSat 27 Feb 05:02:52 05:05:16 13° 46° (NE) 05:07:54 145.827
MOZHAYETS 4 27 Feb 05:07:29 05:09:31 12° 270° (W) 05:11:18
CUBESAT XI-V 27 Feb 05:14:40 05:19:10 52° 75° (ENE) 05:23:46 437.345
STRAND 1 27 Feb 05:19:32 05:24:13 38° 72° (ENE) 05:29:00 437.568
YUBILEINY 27 Feb 05:34:08 05:38:53 15° 279° (W) 05:42:57 435.215
Cubesat XI-IV 27 Feb 05:40:53 05:46:06 50° 100° (E) 05:51:17 437.490
CUTE-I 27 Feb 05:51:01 05:56:21 63° 101° (E) 06:01:39 437.470
RS-15 27 Feb 05:56:22 06:02:52 17° 25° (NNE) 06:09:58 29.354- 29.394
JAS-2 27 Feb 06:01:23 06:06:10 18° 296° (WNW) 06:10:46 435.910
SRMSAT 27 Feb 06:05:53 06:09:58 19° 177° (S) 06:14:03 437.500
PRISM 27 Feb 06:06:42 06:10:21 30° 263° (W) 06:14:02 437.425
JUGNU 27 Feb 06:12:15 06:16:08 18° 187° (S) 06:19:58 437.505
AO-7 27 Feb 06:33:13 06:35:19 11° 308° (NW) 06:36:47 29.400- 29.500
PCSat 27 Feb 06:44:02 06:49:28 85° 248° (WSW) 06:54:54 145.827
CUBESAT XI-V 27 Feb 06:54:50 06:57:01 13° 270° (W) 06:58:55 437.345
STRAND 1 27 Feb 06:59:41 07:03:35 21° 266° (W) 07:07:21 437.568
AIST 1 27 Feb 07:13:10 07:17:29 86° 276° (W) 07:21:52
Cubesat XI-IV 27 Feb 07:22:11 07:25:50 18° 293° (WNW) 07:29:16 437.490
CUTE-I 27 Feb 07:32:58 07:35:57 15° 295° (WNW) 07:38:39 437.470
GONETS M04 27 Feb 07:46:56 07:53:27 24° 69° (ENE) 08:00:20
BRITE-PL 27 Feb 07:48:06 07:52:25 39° 97° (E) 07:56:28 437.365/2234.400
SRMSAT 27 Feb 07:54:41 07:58:28 17° 187° (S) 08:02:14 437.500
JUGNU 27 Feb 08:03:26 08:04:28 10° 196° (SSW) 08:05:22 437.505
RS-15 27 Feb 08:07:39 08:18:48 55° 53° (NE) 08:30:31 29.354- 29.394
CINEMA 3 27 Feb 08:08:15 08:10:08 13° 91° (E) 08:12:14 145.822/145.860
GOMX 1 27 Feb 08:13:06 08:17:23 49° 99° (E) 08:21:29 467.674
HO-68 27 Feb 08:13:45 08:20:46 55° 101° (E) 08:27:48 435.675
COMPASS 1 27 Feb 08:14:41 08:18:27 32° 97° (E) 08:22:15 437.405
AAUSAT CUBESAT 2 27 Feb 08:15:24 08:19:00 28° 96° (E) 08:22:40 437.432
O/OREOS (USA 219) 27 Feb 08:24:21 08:26:51 15° 101° (E) 08:29:35 437.305
ISS 27 Feb 08:27:17 08:29:24 17° 129° (SE) 08:31:36 145.825
CANX-2 27 Feb 08:32:40 08:36:56 87° 283° (WNW) 08:41:12 2200.000
SEEDS 27 Feb 08:35:48 08:40:01 76° 101° (E) 08:44:15 437.485
DUCHIFAT 1 27 Feb 08:45:46 08:46:05 10° 67° (ENE) 08:46:42 145.980
UNISAT 6 27 Feb 08:50:14 08:53:45 24° 71° (ENE) 08:57:18 437.425
CUTE 1.7 + AOD 2 27 Feb 08:51:58 08:56:08 55° 284° (WNW) 09:00:17 437.475
CUBEBUG 2 27 Feb 08:54:03 08:57:29 25° 96° (E) 09:00:59 437.445
POLYITAN 1 27 Feb 08:58:59 09:01:32 16° 69° (ENE) 09:04:15 437.675
POPSAT HIP 1 27 Feb 09:01:25 09:04:05 17° 69° (ENE) 09:06:55 437.405
DOVE 4 27 Feb 09:06:39 09:10:52 54° 285° (WNW) 09:14:55 437.250
Oscar 11 27 Feb 09:14:01 09:18:19 68° 101° (E) 09:22:37 145.826/435.025
TIGRISAT 27 Feb 09:16:28 09:20:45 46° 74° (ENE) 09:24:57 435.000
AISAT 27 Feb 09:18:49 09:20:29 12° 91° (E) 09:22:25 437.250
NANOSAT C BR1 27 Feb 09:24:58 09:28:43 31° 73° (ENE) 09:32:32 145.865
ANTELSAT 27 Feb 09:27:39 09:32:06 66° 76° (ENE) 09:36:27 437.575/2403.000
BRITE-PL 27 Feb 09:27:49 09:30:36 15° 293° (WNW) 09:33:06 437.365/2234.400
50 SAT 27 Feb 09:28:10 09:30:07 14° 92° (E) 09:32:16 437.505
VELOX 1 27 Feb 09:29:23 09:32:05 16° 92° (E) 09:34:57 145.980
DX 1 27 Feb 09:31:33 09:35:46 47° 100° (E) 09:39:58 434.975-435.025
GONETS M04 27 Feb 09:42:24 09:51:01 64° 268° (W) 09:59:38
CINEMA 3 27 Feb 09:43:44 09:47:38 38° 286° (WNW) 09:51:27 145.822/145.860
DELFI C3 27 Feb 09:46:07 09:50:09 59° 285° (WNW) 09:54:09 145.870
ZACube-1 27 Feb 09:50:22 09:54:32 87° 101° (E) 09:58:42 437.345
FUNcube-1 27 Feb 09:50:34 09:54:44 86° 100° (E) 09:58:53 145.935
COMPASS 1 27 Feb 09:51:10 09:53:57 17° 290° (WNW) 09:56:35 437.405
AAUSAT CUBESAT 2 27 Feb 09:51:29 09:54:30 19° 289° (WNW) 09:57:24 437.432
GOMX 1 27 Feb 09:53:21 09:55:05 12° 294° (WNW) 09:56:33 467.674
QB50P1 27 Feb 09:56:10 10:00:27 76° 78° (ENE) 10:04:45 145.935-145.965
QB50P2 27 Feb 09:58:36 10:02:54 83° 77° (ENE) 10:07:12 145.880/145.840
UWE-3 27 Feb 10:00:49 10:04:53 54° 285° (WNW) 10:08:56 435.000/436.395/437.385
O/OREOS (USA 219) 27 Feb 10:01:40 10:05:58 40° 294° (WNW) 10:10:17 437.305
HO-68 27 Feb 10:02:23 10:08:07 26° 296° (WNW) 10:13:38 435.675
ISS 27 Feb 10:02:39 10:05:38 34° 323° (NW) 10:08:38 145.825
SO-50 27 Feb 10:05:53 10:09:08 18° 47° (NE) 10:12:32 436.795
UKube-1 27 Feb 10:06:01 10:10:21 69° 285° (WNW) 10:14:39 .
DUCHIFAT 1 27 Feb 10:17:16 10:21:30 60° 260° (W) 10:25:44 145.980
RS-15 27 Feb 10:20:31 10:31:03 40° 251° (WSW) 10:41:40 29.354- 29.394
HUMSAT D 27 Feb 10:24:17 10:28:23 72° 283° (WNW) 10:32:28 437.325/437.525
UNISAT 6 27 Feb 10:26:43 10:30:29 25° 264° (W) 10:34:06 437.425
BUGSAT 1 27 Feb 10:26:57 10:31:10 61° 259° (W) 10:35:25 437.445
CUBEBUG 2 27 Feb 10:30:59 10:34:05 20° 289° (WNW) 10:37:05 437.445
POLYITAN 1 27 Feb 10:33:12 10:37:13 37° 262° (W) 10:41:12 437.675
POPSAT HIP 1 27 Feb 10:35:47 10:39:45 35° 263° (W) 10:43:41 437.405
AISAT 27 Feb 10:53:09 10:57:28 48° 286° (WNW) 11:01:42 437.250
TIGRISAT 27 Feb 10:55:39 10:57:46 13° 269° (W) 10:59:37 435.000
NANOSAT C BR1 27 Feb 11:01:39 11:04:41 18° 267° (W) 11:07:34 145.865
50 SAT 27 Feb 11:01:43 11:05:17 33° 287° (WNW) 11:08:51 437.505
VELOX 1 27 Feb 11:04:44 11:08:51 37° 287° (WNW) 11:12:54 145.980
ESTCUBE 1 27 Feb 11:05:22 11:09:57 82° 284° (WNW) 11:14:29 437.505/2401.250
CUSAT 1 27 Feb 11:07:17 11:09:54 69° 81° (E) 11:12:31 437.405
DX 1 27 Feb 11:09:29 11:11:39 13° 293° (WNW) 11:13:36 434.975-435.025
CUBEBUG 1 27 Feb 11:09:59 11:14:25 78° 283° (WNW) 11:18:48 437.445
SO-50 27 Feb 11:45:15 11:50:06 56° 244° (WSW) 11:54:53 436.795
SPROUT 27 Feb 11:57:16 12:01:35 86° 102° (ESE) 12:05:52 437.525
DANDE 27 Feb 11:58:49 12:00:48 18° 267° (W) 12:02:41 436.750
TISAT 1 27 Feb 12:14:52 12:19:03 64° 285° (WNW) 12:23:13 437.305
ITUPSAT 1 27 Feb 12:18:35 12:21:37 17° 92° (E) 12:24:52 437.325
ITAMSAT 1 27 Feb 12:22:11 12:26:13 24° 69° (ENE) 12:30:23 435.822/435.867
Oscar 19 27 Feb 12:31:00 12:36:09 89° 255° (WSW) 12:41:20 437.125/150
Gurwin Techsat 1B 27 Feb 13:10:51 13:15:58 52° 73° (ENE) 13:21:09 435.225
SWISSCUBE 27 Feb 13:20:36 13:25:27 87° 284° (WNW) 13:30:16 437.505
BEESAT 27 Feb 13:29:59 13:34:47 75° 284° (WNW) 13:39:34 436.000
AO-7 27 Feb 13:39:52 13:46:22 27° 61° (ENE) 13:53:08 29.400- 29.500
ITUPSAT 1 27 Feb 13:55:12 13:59:45 41° 287° (WNW) 14:04:14 437.325
ITAMSAT 1 27 Feb 14:00:46 14:05:33 35° 263° (W) 14:10:18 435.822/435.867
HORYU 2 27 Feb 14:01:25 14:05:33 41° 74° (ENE) 14:09:45 437.375
JAS-2 27 Feb 14:25:23 14:29:13 21° 65° (ENE) 14:33:29 435.910
YUBILEINY 27 Feb 14:37:19 14:42:51 20° 83° (E) 14:48:54 435.215
KKS-1 27 Feb 14:41:03 14:45:27 65° 285° (WNW) 14:49:50 437.445
Gurwin Techsat 1B 27 Feb 14:53:00 14:56:20 16° 269° (W) 14:59:24 435.225
STARS 27 Feb 14:55:53 15:00:16 69° 285° (WNW) 15:04:36 437.465
M-CUBED/EXP-1 PRIME 27 Feb 14:57:46 14:58:36 11° 96° (E) 14:59:45 437.505
AUBIESAT-1 27 Feb 15:02:44 15:03:44 11° 97° (E) 15:05:03 437.475
MOZHAYETS 4 27 Feb 15:27:29 15:30:14 16° 92° (E) 15:33:12
AO-7 27 Feb 15:30:26 15:38:42 62° 257° (WSW) 15:46:56 29.400- 29.500
HORYU 2 27 Feb 15:39:55 15:42:28 14° 268° (W) 15:44:48 437.375
JAS-2 27 Feb 16:09:01 16:14:01 42° 263° (W) 16:19:25 435.910
